Погода в Пушкарном

Россия / Белгородская область     50°37′24″N   36°26′16″E
темп.,
°C
ветер,
м/с
пор.,
м/с
влажн.,
%
обл.,
%
осадки,
мм/ч
давл.,
гПа
погр.,
м
15 мая, сб
сб1500:00+14юз338648 0.3 101042
03:00+12ююз33895 0.3 101043
06:00+12ююз3889100 0.0 1011183
09:00+18ююз476963 0.0 1012546
12:00+21юз68510 0.0 10121610
15:00+22ююз694851 0.0 10122416
18:00+18юз367195 0.0 1012184
21:00+17юз236772 0.0 101338
16 мая, вс
вс1600:00+16ююз226431 0.0 101320
03:00+13ю227812 0.0 101413
06:00+14ююв22797 0.0 101422
09:00+20юв236396 0.0 1014399
12:00+22вюв2351100 0.0 10141319
15:00+24всв334654 0.0 10131612
18:00+22св4662100 0.0 1011318
21:00+16св488658 0.9 1011127
17 мая, пн
пн1700:00+15св4995100 0.0 1010151
03:00+14всв41189100 0.0 1008186
06:00+14в4128620 0.0 1008217
09:00+20вюв6146318 0.0 1007520
12:00+23юв9125335 0.0 10061194
15:00+24юв695599 0.0 10051086
18:00+23юв61167100 0.0 1005522
21:00+19юв5138397 0.0 1005274
18 мая, вт
вт1800:00+17ююв4891100 0.0 1005168
03:00+15ююв51091100 0.0 1006389
06:00+15ююв5108899 0.0 1006758
09:00+16ю71285100 0.0 1006818
12:00+20ю7106694 0.1 10061515
15:00+21ю796945 2.6 10071246
18:00+20ю497499 1.3 1006582
21:00+15ююв41188100 3.1 1006230
19 мая, ср
ср1900:00+15ююв51194100 0.9 1005359
03:00+15ююз5995100 2.8 1004353
06:00+14ююз5992100 1.7 1005436
09:00+15юз798199 1.9 1005980
12:00+14зюз9147462 0.3 10081200
15:00+14зюз597956 0.8 1009923
18:00+15з47786 0.8 1010785
21:00+12зюз3389100 1.1 101254